Skip Page Navigation
NASA JPL Caltech
NASA Logo - Jet Propulsion Laboratory + View the NASA Portal
+ Center for Near-Earth Object Studies
JPL Home Earth Solar System Stars & Galaxies Technology
JPL Solar System Dynamics
BODIES ORBITS EPHEMERIDES TOOLS PHYSICAL DATA DISCOVERY FAQ SITE MAP
IMPORTANT: The SSD Announcement email list is now available. Major changes are coming in the near future, including possible hostname and/or URL changes. To be notified of such changes, subscribe to this email list.

Please visit this page for more details.


JPL Small-Body Database Browser
Search: [ help ]  
(2006 JY26)
Classification: Apollo [NEO]          SPK-ID: 3332535
Ephemeris | Orbit Diagram | Orbital Elements | Mission Design | Physical Parameters | Close-Approach Data ]

[ hide orbit diagram ]

For accurate long-term ephemerides, please instead use our Horizons system.This orbit viewer was implemented using two-body methods, and hence should not be used for determining accurate long-term trajectories (over several years or decades) or planetary encounter circumstances.


[ revert to old Java-based viewer ]

Orbital Elements at Epoch 2458600.5 (2019-Apr-27.0) TDB
Reference: JPL 9 (heliocentric ecliptic J2000)
 Element Value Uncertainty (1-sigma)   Units 
e .08308918686958262 1.7907e-05  
a 1.010279669477205 1.026e-05 au
q .9263363532294735 8.748e-06 au
i 1.43882896351189 0.00015601 deg
node 43.46553309601745 0.0079298 deg
peri 273.648061360634 0.017997 deg
M 199.4235484124133 0.11161 deg
tp 2458765.939878699806
(2019-Oct-09.43987870)
0.11751 TDB
period 370.9034278880179
1.02
0.0056504
1.547e-05
d
yr
n .970603054412024 1.4786e-05 deg/d
Q 1.094222985724937 1.1113e-05 au
  Orbit Determination Parameters
   # obs. used (total)      76  
   data-arc span      4 days  
   first obs. used      2006-05-06  
   last obs. used      2006-05-10  
   planetary ephem.      DE431  
   SB-pert. ephem.      SB431-N16  
   condition code      3  
   norm. resid. RMS      .52341  
   source      ORB  
   producer      Otto Matic  
   solution date      2017-Apr-06 09:08:40  

Additional Information
 Earth MOID = .000117765 au 
 Jupiter MOID = 3.98394 au 
 T_jup = 6.028 
[ show covariance matrix ]

Ephemeris | Orbit Diagram | Orbital Elements | Mission Design | Physical Parameters | Close-Approach Data ]

Physical Parameter Table
Parameter Symbol Value Units Sigma Reference Notes
absolute magnitude H 28.4   n/a MPO102343  

[ show close-approach data ]
Ephemeris | Orbit Diagram | Orbital Elements | Mission Design | Physical Parameters | Close-Approach Data ]
ABOUT SSD CREDITS/AWARDS PRIVACY/COPYRIGHT GLOSSARY LINKS
FirstGov 2019-Oct-16 23:44 UT
(server date/time)  
NASA Home Page
Site Manager:   Ryan S. Park
Webmaster  Alan B. Chamberlin